GW3011 Weather Reports


time (UTC)temp
F
wind
direction
speed
knots
gust
knots
rain 1hr
in
rain 24hr
in
rain mn
in
humidity
%
barometer
mb
20260831232220 73 303 0.0 0.0 0.00 0.00 0.00 82 1017.7
20260831231716 73 355 0.0 0.0 0.00 0.00 0.00 82 1017.8
20260831231212 74 311 0.0 0.0 0.00 0.00 0.00 81 1017.9
20260831230712 74 7 0.0 0.0 0.00 0.00 0.00 81 1017.6
20260831230208 74 192 0.0 0.0 0.00 0.00 0.00 81 1017.9
20260831225707 74 316 0.0 0.0 0.00 0.00 0.00 81 1017.9
20260831225202 74 58 0.0 0.0 0.00 0.00 0.00 81 1017.8
20260831224657 75 216 0.0 0.0 0.00 0.00 0.00 80 1018.0
20260831224152 75 94 0.0 0.0 0.00 0.00 0.00 79 1017.8
20260831223648 75 99 0.0 0.0 0.00 0.00 0.00 79 1017.8
20260831223144 75 269 0.0 0.0 0.00 0.00 0.00 79 1017.8
20260831222639 75 224 0.0 0.0 0.00 0.00 0.00 79 1017.8
20260831222135 75 60 0.0 0.0 0.00 0.00 0.00 79 1017.9
20260831221630 75 77 0.0 0.0 0.00 0.00 0.00 78 1017.8
20260831221125 75 3 0.0 0.0 0.00 0.00 0.00 78 1017.9
20260831220621 76 80 0.0 0.0 0.00 0.00 0.00 76 1018.2
20260831220116 76 107 0.0 0.0 0.00 0.00 0.00 76 1018.1
20260831215611 76 80 0.0 0.0 0.00 0.00 0.00 76 1018.2
20260831215107 76 72 0.0 0.0 0.00 0.00 0.00 75 1018.0
20260831214604 75 101 0.0 0.0 0.00 0.00 0.00 76 1017.8
20260831214100 76 97 0.0 0.0 0.00 0.00 0.00 76 1017.9
20260831213556 76 233 0.0 0.0 0.00 0.00 0.00 76 1018.3
20260831213051 76 44 0.0 0.0 0.00 0.00 0.00 76 1018.0
20260831212547 75 97 0.0 0.0 0.00 0.00 0.00 77 1018.1
20260831212043 76 305 0.0 0.0 0.00 0.00 0.00 77 1018.4
20260831211537 75 152 0.0 0.0 0.00 0.00 0.00 78 1018.1
20260831211036 75 38 0.0 0.0 0.00 0.00 0.00 77 1018.3
20260831210531 76 237 0.0 0.0 0.00 0.00 0.00 77 1018.4
20260831210028 76 304 0.0 0.0 0.00 0.00 0.00 75 1018.5
20260831205522 76 190 0.0 0.0 0.00 0.00 0.00 77 1018.3
20260831205018 75 63 0.0 0.0 0.00 0.00 0.00 79 1018.3
20260831204518 75 88 0.0 0.0 0.00 0.00 0.00 77 1018.2
20260831204016 75 341 0.0 0.0 0.00 0.00 0.00 76 1018.1
20260831203511 75 37 0.0 0.0 0.00 0.00 0.00 77 1018.2
20260831203010 75 329 0.0 0.0 0.00 0.00 0.00 77 1018.2
20260831202504 75 44 0.0 0.0 0.00 0.00 0.00 76 1018.3
20260831202003 75 301 0.0 0.0 0.00 0.00 0.00 76 1018.3
20260831201502 76 110 0.0 0.0 0.00 0.00 0.00 75 1018.7
20260831200958 75 69 0.0 0.0 0.00 0.00 0.00 77 1018.7
20260831200453 74 297 0.0 0.0 0.00 0.00 0.00 78 1018.7
20260831195948 75 73 0.0 0.0 0.00 0.00 0.00 77 1018.6
20260831195444 74 103 0.0 0.0 0.00 0.00 0.00 79 1018.8
20260831194938 75 103 0.0 0.0 0.00 0.00 0.00 78 1019.0
20260831194434 75 104 0.0 0.0 0.00 0.00 0.00 77 1018.9
20260831193933 75 101 0.0 0.0 0.00 0.00 0.00 79 1019.0
20260831193429 76 107 0.0 0.0 0.00 0.00 0.00 78 1018.8
20260831192924 77 53 0.0 0.0 0.00 0.00 0.00 72 1018.8
20260831192419 77 112 0.0 0.0 0.00 0.00 0.00 71 1018.9
20260831191914 77 47 0.0 0.0 0.00 0.00 0.00 71 1019.1
20260831191410 78 92 0.0 0.0 0.00 0.00 0.00 71 1019.0
20260831190906 77 35 0.0 0.0 0.00 0.00 0.00 70 1019.0
20260831190406 77 14 0.0 0.0 0.00 0.00 0.00 71 1019.1
20260831185905 77 38 0.0 0.0 0.00 0.00 0.00 70 1019.0
20260831185401 77 327 0.0 0.0 0.00 0.00 0.00 69 1019.2
20260831184900 79 289 0.0 0.0 0.00 0.00 0.00 68 1018.9
20260831184355 79 179 0.0 0.0 0.00 0.00 0.00 67 1019.1
20260831183851 79 176 0.0 0.0 0.00 0.00 0.00 66 1018.8
20260831183350 80 353 0.0 0.0 0.00 0.00 0.00 66 1019.1
20260831182849 79 27 0.0 0.0 0.00 0.00 0.00 66 1019.0
20260831182345 80 283 0.0 0.0 0.00 0.00 0.00 67 1019.1
20260831181840 80 241 0.0 0.0 0.00 0.00 0.00 63 1018.9
20260831181335 79 346 0.0 0.0 0.00 0.00 0.00 67 1019.3
20260831180830 81 304 0.0 0.0 0.00 0.00 0.00 62 1019.2
20260831180325 80 286 0.0 0.0 0.00 0.00 0.00 64 1019.2
20260831175824 81 49 0.0 0.0 0.00 0.00 0.00 62 1019.3
20260831175320 80 216 0.0 0.0 0.00 0.00 0.00 64 1019.3
20260831174816 81 91 0.0 0.0 0.00 0.00 0.00 63 1019.4
20260831174312 80 115 0.0 0.0 0.00 0.00 0.00 64 1019.2
20260831173811 81 307 0.0 0.0 0.00 0.00 0.00 63 1019.4
20260831173305 80 350 0.0 0.0 0.00 0.00 0.00 64 1019.1
20260831172800 78 318 0.0 0.0 0.00 0.00 0.00 66 1019.3
20260831172255 80 45 0.0 0.0 0.00 0.00 0.00 65 1019.4
20260831171749 80 96 0.0 0.0 0.00 0.00 0.00 63 1019.4
20260831171247 79 319 0.0 0.0 0.00 0.00 0.00 65 1019.4
20260831170743 80 339 0.0 0.0 0.00 0.00 0.00 63 1019.2
20260831170239 80 257 0.0 0.0 0.00 0.00 0.00 65 1019.4
20260831165735 79 21 0.0 0.0 0.00 0.00 0.00 67 1019.4
20260831165232 78 158 0.0 0.0 0.00 0.00 0.00 66 1019.4
20260831164727 80 13 0.0 0.0 0.00 0.00 0.00 65 1019.5
20260831164223 81 141 0.0 0.0 0.00 0.00 0.00 63 1019.6
20260831163718 81 123 0.0 0.0 0.00 0.00 0.00 62 1019.4
20260831163214 80 357 0.0 0.0 0.00 0.00 0.00 63 1019.3
20260831162712 78 341 0.0 0.0 0.00 0.00 0.00 66 1019.5
20260831162212 79 59 0.0 0.0 0.00 0.00 0.00 63 1019.6
20260831161707 78 93 0.0 0.0 0.00 0.00 0.00 64 1019.6
20260831161203 78 296 0.0 0.0 0.00 0.00 0.00 66 1019.6
20260831160702 77 40 0.0 0.0 0.00 0.00 0.00 67 1019.6
20260831160157 78 304 0.0 0.0 0.00 0.00 0.00 66 1019.6
20260831155651 78 255 0.0 0.0 0.00 0.00 0.00 66 1019.4
20260831155147 78 23 0.0 0.0 0.00 0.00 0.00 65 1019.5
20260831154643 79 316 0.0 0.0 0.00 0.00 0.00 65 1019.6
20260831154138 77 344 0.0 0.0 0.00 0.00 0.00 67 1019.6
20260831153637 77 220 0.0 0.0 0.00 0.00 0.00 68 1019.8
20260831153134 75 242 0.0 0.0 0.00 0.00 0.00 71 1019.7
20260831152629 76 284 0.0 0.0 0.00 0.00 0.00 70 1019.7
20260831152125 75 351 0.0 0.0 0.00 0.00 0.00 72 1019.7
20260831151624 76 356 0.0 0.0 0.00 0.00 0.00 71 1019.7
20260831151119 77 338 0.0 0.0 0.00 0.00 0.00 69 1019.7
20260831150614 77 281 0.0 0.0 0.00 0.00 0.00 70 1019.7
20260831150110 76 177 0.0 0.0 0.00 0.00 0.00 69 1019.9
20260831145603 76 290 0.0 0.0 0.00 0.00 0.00 71 1020.1
20260831145100 75 239 0.0 0.0 0.00 0.00 0.00 72 1019.7
20260831144555 76 288 0.0 0.0 0.00 0.00 0.00 73 1019.8
20260831144051 75 352 0.0 0.0 0.00 0.00 0.00 73 1020.0
20260831143545 74 278 0.0 0.0 0.00 0.00 0.00 74 1019.9
20260831143041 74 279 0.0 0.0 0.00 0.00 0.00 75 1019.7
20260831142537 74 260 0.0 0.0 0.00 0.00 0.00 75 1019.8
20260831142032 74 232 0.0 0.0 0.00 0.00 0.00 75 1019.7
20260831141531 73 218 0.0 0.0 0.00 0.00 0.00 76 1019.9
20260831141026 74 202 0.0 0.0 0.00 0.00 0.00 75 1019.9
20260831140521 74 267 0.0 0.0 0.00 0.00 0.00 75 1019.8
20260831140021 74 298 0.0 0.0 0.00 0.00 0.00 74 1019.6
20260831135518 73 322 0.0 0.0 0.00 0.00 0.00 75 1019.8
20260831135014 74 272 0.0 0.0 0.00 0.00 0.00 75 1019.7
20260831134510 73 257 0.0 0.0 0.00 0.00 0.00 76 1019.5
20260831134009 73 288 0.0 0.0 0.00 0.00 0.00 76 1019.5
20260831133504 73 242 0.0 0.0 0.00 0.00 0.00 75 1019.5
20260831132958 73 328 0.0 0.0 0.00 0.00 0.00 75 1019.4
20260831132455 74 307 0.0 0.0 0.00 0.00 0.00 74 1019.4
20260831131954 73 190 0.0 0.0 0.00 0.00 0.00 75 1019.6
20260831131454 73 178 0.0 0.0 0.00 0.00 0.00 76 1019.6
20260831130950 72 224 0.0 0.0 0.00 0.00 0.00 77 1019.7
20260831130445 72 203 0.0 0.0 0.00 0.00 0.00 77 1019.6
20260831125944 72 195 0.0 0.0 0.00 0.00 0.00 77 1019.7
20260831125439 72 182 0.0 0.0 0.00 0.00 0.00 78 1019.6
20260831124935 72 252 0.0 0.0 0.00 0.00 0.00 78 1019.7
20260831124431 72 257 0.0 0.0 0.00 0.00 0.00 78 1019.6
20260831123926 72 287 0.0 0.0 0.00 0.00 0.00 78 1019.5
20260831123424 72 206 0.0 0.0 0.00 0.00 0.00 78 1019.5
20260831122920 72 187 0.0 0.0 0.00 0.00 0.00 78 1019.7
20260831122414 72 259 0.0 0.0 0.00 0.00 0.00 78 1019.7
20260831121910 72 225 0.0 0.0 0.00 0.00 0.00 78 1019.5
20260831121401 72 302 0.0 0.0 0.00 0.00 0.00 78 1019.5
20260831120855 72 182 0.0 0.0 0.00 0.00 0.00 78 1019.4
20260831120355 72 190 0.0 0.0 0.00 0.00 0.00 78 1019.5
20260831115845 72 231 0.0 0.0 0.00 0.00 0.00 79 1019.4
20260831115342 72 241 0.0 0.0 0.00 0.00 0.00 80 1019.4
20260831114841 72 193 0.0 0.0 0.00 0.00 0.00 79 1019.3
20260831114339 72 191 0.0 0.0 0.00 0.00 0.00 80 1019.3
20260831113830 72 343 0.0 0.0 0.00 0.00 0.00 80 1019.0
20260831113329 72 279 0.0 0.0 0.00 0.00 0.00 81 1018.9
20260831112824 72 285 0.0 0.0 0.00 0.00 0.00 81 1019.1
20260831112319 72 310 0.0 0.0 0.00 0.00 0.00 80 1019.2
20260831111815 72 11 0.0 0.0 0.00 0.00 0.00 80 1019.3
20260831111311 72 174 0.0 0.0 0.00 0.00 0.00 81 1019.2
20260831110806 72 165 0.0 0.0 0.00 0.00 0.00 80 1019.1
20260831110301 71 237 0.0 0.0 0.00 0.00 0.00 81 1019.1
20260831105759 71 186 0.0 0.0 0.00 0.00 0.00 81 1019.1
20260831105255 71 265 0.0 0.0 0.00 0.00 0.00 81 1019.0
20260831104750 71 203 0.0 0.0 0.00 0.00 0.00 81 1018.8
20260831104246 71 287 0.0 0.0 0.00 0.00 0.00 81 1018.7
20260831103746 72 332 0.0 0.0 0.00 0.00 0.00 81 1018.7
20260831103241 72 338 0.0 0.0 0.00 0.00 0.00 80 1018.9
20260831102736 72 214 0.0 0.0 0.00 0.00 0.00 81 1018.5
20260831102231 72 201 0.0 0.0 0.00 0.00 0.00 81 1018.6
20260831101726 72 296 0.0 0.0 0.00 0.00 0.00 80 1018.5
20260831101222 72 218 0.0 0.0 0.00 0.00 0.00 80 1018.3
20260831100718 72 328 0.0 0.0 0.00 0.00 0.00 80 1018.5
20260831100214 72 328 0.0 0.0 0.00 0.00 0.00 80 1018.3
20260831095712 72 191 0.0 0.0 0.00 0.00 0.00 79 1018.7
20260831095207 72 156 0.0 0.0 0.00 0.00 0.00 79 1018.4
20260831094702 72 186 0.0 0.0 0.00 0.00 0.00 80 1018.3
20260831094158 72 293 0.0 0.0 0.00 0.00 0.00 79 1018.3
20260831093654 72 136 0.0 0.0 0.00 0.00 0.00 80 1018.2
20260831093149 72 145 0.0 0.0 0.00 0.00 0.00 79 1018.3
20260831092645 72 290 0.0 0.0 0.00 0.00 0.00 79 1018.1
20260831092141 72 133 0.0 0.0 0.00 0.00 0.00 79 1018.2
20260831091640 72 154 0.0 0.0 0.00 0.00 0.00 79 1018.2
20260831091136 72 285 0.0 0.0 0.00 0.00 0.00 79 1018.1
20260831090631 72 115 0.0 0.0 0.00 0.00 0.00 80 1018.1
20260831090127 72 115 0.0 0.0 0.00 0.00 0.00 80 1017.7
20260831085622 72 133 0.0 0.0 0.00 0.00 0.00 79 1018.0
20260831085118 72 142 0.0 0.0 0.00 0.00 0.00 78 1017.9
20260831084614 72 144 0.0 0.0 0.00 0.00 0.00 78 1017.8
20260831084109 72 175 0.0 0.0 0.00 0.00 0.00 78 1018.1
20260831083605 72 164 0.0 0.0 0.00 0.00 0.00 77 1018.1
20260831083100 73 134 0.0 0.0 0.00 0.00 0.00 78 1018.2
20260831082553 73 169 0.0 0.0 0.00 0.00 0.00 78 1018.0
20260831082049 73 146 0.0 0.0 0.00 0.00 0.00 77 1017.8
20260831081544 73 176 0.0 0.0 0.00 0.00 0.00 77 1017.9
20260831081040 73 129 0.0 0.0 0.00 0.00 0.00 77 1017.9
20260831080540 73 194 0.0 0.0 0.00 0.00 0.00 76 1018.0
20260831080030 73 171 0.0 0.0 0.00 0.00 0.00 76 1018.2
20260831075525 73 207 0.0 0.0 0.00 0.00 0.00 76 1017.8
20260831075020 73 197 0.0 0.0 0.00 0.00 0.00 76 1018.1
20260831074515 73 321 0.0 0.0 0.00 0.00 0.00 77 1018.2
20260831074014 73 174 0.0 0.0 0.00 0.00 0.00 76 1018.1
20260831073509 73 167 0.0 0.0 0.00 0.00 0.00 77 1018.2
20260831073009 73 222 0.0 0.0 0.00 0.00 0.00 77 1018.1
20260831072504 73 175 0.0 0.0 0.00 0.00 0.00 77 1018.1
20260831072000 73 171 0.0 0.0 0.00 0.00 0.00 78 1017.9
20260831071459 73 209 0.0 0.0 0.00 0.00 0.00 77 1018.0
20260831070954 73 192 0.0 0.0 0.00 0.00 0.00 77 1018.2
20260831070453 73 182 0.0 0.0 0.00 0.00 0.00 78 1018.1
20260831065952 73 204 0.0 0.0 0.00 0.00 0.00 78 1018.2
20260831065450 73 214 0.0 0.0 0.00 0.00 0.00 78 1018.0
20260831064945 73 200 0.0 0.0 0.00 0.00 0.00 78 1018.1
20260831064440 73 122 0.0 0.0 0.00 0.00 0.00 79 1018.4
20260831063936 73 144 0.0 0.0 0.00 0.00 0.00 79 1018.2
20260831063431 73 150 0.0 0.0 0.00 0.00 0.00 78 1018.0
20260831062925 73 196 0.0 0.0 0.00 0.00 0.00 79 1018.2
20260831062421 73 109 0.0 0.0 0.00 0.00 0.00 78 1018.0
20260831061919 74 176 0.0 0.0 0.00 0.00 0.00 78 1018.1
20260831061418 74 171 0.0 0.0 0.00 0.00 0.00 77 1018.2
20260831060915 73 159 0.0 0.0 0.00 0.00 0.00 78 1018.4
20260831060410 74 189 0.0 0.0 0.00 0.00 0.00 78 1018.3
20260831055909 74 199 0.0 0.0 0.00 0.00 0.00 77 1018.2
20260831055404 74 140 0.0 0.0 0.00 0.00 0.00 79 1018.4
20260831054859 74 136 0.0 0.0 0.00 0.00 0.00 78 1018.5
20260831054354 74 222 0.0 0.0 0.00 0.00 0.00 77 1018.3
20260831053848 74 205 0.0 0.0 0.00 0.00 0.00 77 1018.3
20260831053346 74 196 0.0 0.0 0.00 0.00 0.00 78 1017.9
20260831052840 74 18 0.0 0.0 0.00 0.00 0.00 79 1018.0
20260831052335 74 171 0.0 0.0 0.00 0.00 0.00 81 1018.1
20260831051833 74 173 0.0 0.0 0.00 0.00 0.00 80 1018.2
20260831051332 75 183 0.0 0.0 0.00 0.00 0.00 81 1018.5
20260831050826 75 205 0.0 0.0 0.00 0.00 0.00 80 1018.5
20260831050326 75 144 0.0 0.0 0.00 0.00 0.00 80 1018.5
20260831045820 75 190 0.0 0.0 0.00 0.00 0.00 82 1018.4
20260831045314 75 116 0.0 0.0 0.00 0.00 0.00 82 1018.5
20260831044809 75 194 0.0 0.0 0.00 0.00 0.00 82 1018.5
20260831044304 75 123 0.0 0.0 0.00 0.00 0.00 82 1018.2
20260831043800 75 177 0.0 0.0 0.00 0.00 0.00 82 1018.3
20260831043254 75 177 0.0 0.0 0.00 0.00 0.00 83 1018.1
20260831042749 75 136 0.0 0.0 0.00 0.00 0.00 82 1018.3
20260831042243 75 141 0.0 0.0 0.00 0.00 0.00 82 1018.2
20260831041738 75 191 0.0 0.0 0.00 0.00 0.00 82 1018.0
20260831041237 75 188 0.0 0.0 0.00 0.00 0.00 82 1018.0
20260831040732 75 187 0.0 0.0 0.00 0.00 0.00 82 1018.0
20260831040232 75 207 0.0 0.0 0.00 0.00 0.00 83 1017.9
20260831035725 75 126 0.0 0.0 0.00 0.00 0.00 84 1017.8
20260831035224 75 184 0.0 0.0 0.00 0.00 0.00 84 1018.1
20260831034723 75 177 0.0 0.0 0.00 0.00 0.00 84 1017.9
20260831034220 75 57 0.0 0.0 0.00 0.00 0.00 83 1018.1
20260831033715 75 178 0.0 0.0 0.00 0.00 0.00 83 1018.0
20260831033214 75 177 0.0 0.0 0.00 0.00 0.00 83 1018.1
20260831032709 75 177 0.0 0.0 0.00 0.00 0.00 83 1018.0
20260831032205 75 178 0.0 0.0 0.00 0.00 0.00 86 1018.0
20260831031659 75 185 0.0 0.0 0.00 0.00 0.00 88 1018.0
20260831031159 74 181 0.0 0.0 0.00 0.00 0.00 90 1017.7
20260831030658 74 162 0.0 0.0 0.00 0.00 0.00 90 1017.7
20260831030157 74 144 0.0 0.0 0.00 0.00 0.00 91 1017.7
20260831025656 74 121 0.0 0.0 0.00 0.05 0.05 91 1017.9
20260831025150 74 167 0.0 0.0 0.00 0.05 0.05 91 1018.1
20260831024648 75 145 0.0 0.0 0.00 0.05 0.05 90 1017.9
20260831024145 75 153 0.0 0.0 0.00 0.05 0.05 90 1018.1
20260831023644 74 181 0.0 0.0 0.00 0.05 0.05 90 1018.3
20260831023137 74 160 0.0 0.0 0.00 0.05 0.05 90 1018.4
20260831022632 74 77 0.0 0.0 0.00 0.05 0.05 92 1018.6
20260831022127 74 189 0.0 0.0 0.07 0.05 0.05 93 1018.4
20260831021626 74 197 0.0 0.0 0.07 0.05 0.05 94 1018.4
20260831021122 74 129 0.0 0.0 0.00 0.04 0.04 94 1018.6
20260831020618 74 164 0.0 0.0 0.12 0.04 0.04 94 1018.6
20260831020113 74 117 0.0 0.0 0.24 0.04 0.04 96 1018.7
20260831015609 75 87 0.0 0.0 0.17 0.03 0.03 95 1018.5
20260831015108 77 152 0.0 0.0 0.00 0.00 0.00 88 1018.2
20260831014603 77 122 0.0 0.0 0.00 0.00 0.00 85 1018.5
20260831014058 77 129 0.0 0.0 0.00 0.00 0.00 84 1018.4
20260831013555 77 158 0.0 0.0 0.00 0.00 0.00 84 1018.5
20260831013054 77 101 0.0 0.0 0.00 0.00 0.00 85 1018.3
20260831012554 77 104 0.0 0.0 0.00 0.00 0.00 86 1018.0
20260831012049 77 93 0.0 0.0 0.00 0.00 0.00 86 1018.0
20260831011548 77 93 0.0 0.0 0.00 0.00 0.00 84 1018.2
20260831011044 77 92 0.0 0.0 0.00 0.00 0.00 83 1018.1
20260831010539 77 89 0.0 0.0 0.00 0.00 0.00 84 1018.1
20260831010036 77 97 0.0 0.0 0.00 0.00 0.00 83 1018.2
20260831005530 77 101 0.0 0.0 0.00 0.00 0.00 83 1017.8
20260831005029 77 93 0.0 0.0 0.00 0.00 0.00 83 1018.0
20260831004526 77 94 0.0 0.0 0.00 0.00 0.00 83 1017.8
20260831004021 77 84 0.0 0.0 0.00 0.00 0.00 82 1017.9
20260831003518 78 92 0.0 0.0 0.00 0.00 0.00 82 1018.0
20260831003014 78 73 0.0 0.0 0.00 0.00 0.00 82 1017.8
20260831002512 78 99 0.0 0.0 0.00 0.00 0.00 81 1017.8
20260831002007 78 116 0.0 0.0 0.00 0.00 0.00 81 1017.7
20260831001503 78 110 0.0 0.0 0.00 0.00 0.00 81 1017.7
20260831000959 78 116 0.0 0.0 0.00 0.00 0.00 80 1017.5
20260831000454 79 130 0.0 0.0 0.00 0.00 0.00 80 1017.6
20260830235952 79 72 0.0 0.0 0.00 0.00 0.00 79 1017.6
20260830235448 79 96 0.0 0.0 0.00 0.00 0.00 79 1017.4
20260830234943 80 129 0.0 0.0 0.00 0.00 0.00 78 1017.6
20260830234438 79 109 0.0 0.0 0.00 0.00 0.00 78 1017.3
20260830233934 79 104 0.0 0.0 0.00 0.00 0.00 78 1017.3
20260830233429 80 86 0.0 0.0 0.00 0.00 0.00 78 1017.4
20260830232925 79 123 0.0 0.0 0.00 0.00 0.00 78 1017.3
20260830232421 80 140 0.0 0.0 0.00 0.00 0.00 77 1017.2